Location: Misciano
(43.5000°N, 11.9500°E)
Time: 05:20:58
(UTC+00:00)

Meteor 1-23 Rocket - Pass Details

Date: 13 August 2020
Orbit: 836 x 889 km, 81.3° (Epoch: 19 September)

Event Time Altitude Azimuth Distance (km) Brightness Sun altitude
Rises 22:06:04 0° 347° (NNW) 3,507 8.6 -30.0°
Reaches altitude 10° 22:08:33 10° 345° (NNW) 2,562 7.6 -30.1°
Enters shadow 22:13:54 64° 290° (WNW) 974 4.5 -30.4°
